Wind_Speed
16 15 15 14 14 13 12 12 12 11 11 10 10 9 9 8 7 7 7 7 7 7 7 8 9 9 10 14 12 7 15 15 21 25 16 9 4 5 4 5 5 3 3 3 3 3 3
17 16 15 14 14 13 13 13 13 13 13 12 12 12 11 11 9 8 8 8 8 8 8 8 8 10 12 15 8 16 10 16 21 25 17 9 5 7 6 5 6 2 6 6 5 4 3
17 16 15 14 14 14 14 14 14 14 14 14 14 13 14 13 12 11 9 9 9 9 9 8 9 11 13 15 14 11 11 15 22 21 15 11 5 8 3 6 8 7 7 7 7 5 2
17 16 16 16 16 15 15 15 15 15 15 15 15 15 15 14 14 13 12 10 10 10 10 9 10 11 11 16 17 15 14 15 17 19 14 10 12 10 9 8 7 10 10 12 5 5 8
17 17 17 17 18 18 17 16 15 15 15 15 16 16 15 15 15 14 13 12 10 10 10 9 10 11 9 13 14 17 19 16 16 19 14 12 15 13 10 9 13 11 13 8 13 9 6
19 18 18 19 20 19 18 17 16 15 15 15 15 15 16 16 15 14 14 12 11 11 11 10 11 6 8 8 11 17 19 17 17 18 15 12 12 13 12 19 15 9 3 13 12 11 6
20 19 19 21 21 19 17 16 15 14 14 15 14 14 15 16 16 15 13 12 6 8 13 10 4 6 7 6 11 16 18 18 18 18 18 15 16 20 17 13 10 8 9 8 10 4 6
22 21 20 21 22 19 16 15 14 13 13 14 14 14 15 15 16 16 14 14 6 12 11 14 15 14 7 10 14 16 19 21 23 22 18 18 21 18 14 12 5 10 11 11 3 4 5
24 23 21 21 22 19 16 15 14 13 12 12 13 13 15 15 16 16 15 17 15 16 12 11 16 17 17 14 15 19 23 22 22 22 21 22 18 16 14 13 12 14 15 6 6 11 9
26 23 22 21 22 19 17 16 14 12 11 11 11 12 14 16 15 16 11 13 10 8 7 13 17 20 18 13 18 18 22 22 21 22 22 21 20 15 18 11 13 17 13 11 11 14 15
27 26 24 22 22 19 16 16 13 10 9 9 8 10 12 16 12 14 11 13 10 7 6 12 17 8 16 22 7 23 22 22 21 18 22 25 19 13 15 18 15 21 8 14 15 16 20
27 27 25 23 22 19 17 16 13 10 9 8 7 9 11 15 15 15 15 15 14 6 11 11 16 18 20 22 14 19 23 23 19 19 20 24 18 21 18 13 17 18 15 13 16 19 20
27 28 27 23 23 19 17 15 11 8 8 8 8 8 10 14 19 17 17 20 7 13 11 13 16 18 22 21 21 24 25 25 25 22 23 23 24 19 19 16 17 17 17 19 14 16 4
27 28 27 24 23 19 16 14 9 7 7 7 6 8 10 14 14 20 23 15 12 14 19 9 13 16 24 20 23 23 23 26 25 22 19 23 21 23 17 21 18 19 22 22 6 7 8
26 28 28 25 23 20 16 14 8 6 4 3 3 6 9 13 18 22 22 20 16 13 16 12 10 18 22 23 22 21 25 26 24 25 24 24 23 19 23 18 20 21 21 15 10 18 12
26 27 26 24 22 19 15 13 8 5 2 1 1 6 5 13 19 23 19 25 20 13 8 6 13 16 21 25 24 24 23 24 24 24 23 20 19 18 24 20 21 23 10 3 5 5 14
27 26 25 23 20 19 15 12 7 3 3 4 9 9 2 10 18 24 22 22 15 8 10 6 8 13 20 24 23 23 21 20 22 25 23 22 19 15 20 24 25 24 26 22 26 13 7
26 24 23 21 18 17 14 11 5 2 5 9 10 3 11 11 18 17 19 20 11 8 9 13 13 11 18 20 23 22 18 21 14 24 27 24 17 20 20 20 21 24 25 21 24 19 26
25 22 21 20 17 16 14 10 3 3 6 11 9 6 8 13 12 13 17 18 12 14 9 12 12 11 7 20 23 22 22 15 17 18 28 22 24 23 24 20 23 24 26 24 23 28 4
23 21 20 19 15 15 13 10 3 3 5 10 11 1 5 15 15 10 16 18 14 16 16 14 12 15 16 15 21 21 21 19 16 14 23 23 25 23 14 25 17 29 22 21 23 22 7
21 20 20 18 14 14 11 10 3 4 6 11 2 5 7 10 17 10 9 22 17 19 16 16 13 13 15 16 19 20 21 16 15 13 21 26 27 25 20 14 6 14 16 14 18 21 24
18 19 18 16 12 13 10 9 5 5 10 8 4 4 9 8 10 16 12 13 13 19 16 19 19 18 20 15 10 18 17 13 17 16 22 24 26 22 22 17 12 13 29 15 19 17 3
18 17 17 15 14 13 11 8 5 3 11 15 12 8 11 5 7 12 15 13 17 17 17 16 19 19 12 4 12 26 14 20 15 16 21 22 24 22 21 17 20 25 23 15 18 14 6
17 18 16 15 14 13 13 9 6 3 8 13 13 10 11 10 11 11 14 10 11 14 11 18 15 30 3 20 8 10 27 21 14 20 23 21 21 22 23 21 18 21 17 12 12 12 9
17 17 16 15 14 14 13 11 7 4 4 10 13 15 15 12 10 3 8 8 11 14 14 16 7 4 8 13 18 18 18 19 14 20 22 18 20 21 24 21 19 18 6 3 10 19 7
17 16 16 15 14 13 14 12 8 5 4 6 12 16 18 16 2 6 3 6 8 11 10 13 16 13 8 9 17 13 14 8 7 9 7 10 11 15 13 19 13 3 3 3 2 2 6
16 16 15 16 15 14 14 13 9 6 5 4 7 14 17 19 9 12 6 9 6 7 6 4 6 7 7 6 10 8 11 5 18 8 13 9 6 11 15 9 4 5 14 15 12 6 5
16 15 15 15 15 14 14 13 10 6 5 5 5 9 15 18 13 9 15 15 10 4 13 9 6 6 8 8 9 1 6 9 14 13 16 8 8 15 21 13 4 22 19 13 14 20 14
16 15 15 16 15 14 13 13 11 7 5 5 6 6 9 15 18 17 17 16 15 11 9 5 9 11 2 1 8 7 8 8 15 13 10 13 3 8 8 2 10 3 14 29 10 16 14
Wind_Direction
330 324 320 317 313 309 304 299 292 284 275 266 262 260 260 258 255 253 250 249 243 241 239 239 236 229 216 194 188 260 219 199 187 187 174 139 253 267 206 195 216 252 232 265 273 282 312
330 325 321 317 311 306 301 294 290 282 275 268 260 255 253 253 252 254 252 251 247 242 242 239 238 227 217 199 218 252 202 189 182 186 178 163 212 244 223 202 242 184 251 249 260 244 261
330 328 325 321 316 308 300 294 288 281 275 268 261 255 251 249 247 247 251 248 247 243 240 239 237 231 225 186 213 237 195 181 175 183 185 215 233 214 266 243 229 253 256 245 227 209 259
333 328 325 323 317 312 303 294 288 282 274 268 261 254 251 247 245 241 243 247 245 244 240 238 239 241 226 220 224 211 181 181 184 184 190 219 243 234 258 230 245 243 245 234 153 224 227
338 334 329 325 319 313 305 298 289 283 277 268 260 254 248 247 243 242 238 239 243 242 239 236 239 244 225 240 224 197 180 185 193 198 205 225 219 228 240 247 237 218 234 222 229 234 248
341 336 333 330 326 317 306 299 292 285 279 270 261 254 246 242 242 237 235 234 239 242 237 230 238 250 267 250 213 186 185 180 192 194 212 232 215 224 240 227 234 248 265 222 192 192 236
340 339 335 332 331 324 313 303 294 288 282 272 261 251 244 238 235 233 228 220 231 264 246 233 295 191 326 182 193 187 186 180 193 202 209 212 212 224 224 268 211 253 213 226 199 164 220
346 340 338 336 335 329 321 312 302 293 284 275 264 250 240 236 233 228 220 198 216 213 259 224 219 187 176 181 185 191 186 188 197 203 204 206 221 227 237 231 226 222 259 249 171 230 229
348 345 340 337 336 330 325 318 310 301 288 277 270 253 238 232 229 224 219 210 227 224 257 256 240 221 213 199 205 196 193 189 196 202 207 216 214 232 245 230 237 249 242 242 262 253 242
352 346 342 339 338 333 327 322 315 304 289 279 273 255 235 225 222 215 213 211 230 207 281 232 218 218 209 210 210 201 201 196 200 208 212 224 230 218 226 244 242 238 229 226 256 245 251
352 351 345 342 340 335 327 324 319 306 284 279 271 253 227 215 210 205 199 196 182 164 263 184 193 205 197 201 183 195 201 197 206 210 213 222 229 212 238 244 241 240 276 263 258 248 258
351 351 348 343 342 337 332 327 321 307 282 277 266 249 220 208 198 207 193 176 168 197 244 160 181 182 188 203 196 194 199 199 211 222 226 228 225 231 241 237 238 241 253 271 250 257 255
347 350 348 344 343 340 334 330 324 307 284 278 264 242 214 202 194 179 179 159 184 229 201 188 195 193 194 197 193 195 198 202 208 216 226 224 233 232 240 243 233 238 246 259 235 244 346
343 346 346 344 344 342 336 331 328 313 292 280 259 232 208 203 190 183 170 174 226 231 232 179 197 201 197 196 196 200 204 209 212 214 223 221 219 227 224 231 244 226 232 253 284 318 301
338 341 344 343 344 343 341 336 335 327 313 284 244 215 201 190 183 183 173 198 211 230 235 227 192 192 199 201 202 209 210 214 216 214 228 217 229 229 231 233 232 235 231 220 223 278 268
336 339 342 343 343 344 345 341 341 348 346 3 153 172 188 186 185 185 188 212 220 304 271 215 197 199 201 203 205 202 208 220 221 219 223 244 248 225 228 224 227 237 192 114 280 244 247
337 338 341 341 342 343 348 345 348 15 58 99 96 100 318 193 185 185 206 221 232 261 244 234 219 204 213 203 206 209 220 223 219 218 220 232 254 250 225 212 222 226 239 247 241 247 282
337 338 340 342 342 344 348 352 355 74 106 135 119 289 261 207 187 204 216 218 263 244 252 233 266 262 208 210 207 219 214 218 217 215 213 219 231 250 209 222 221 233 238 238 239 251 227
337 339 341 344 344 345 347 356 357 133 130 127 98 281 244 197 190 209 223 230 241 224 231 224 235 242 210 220 213 218 224 222 210 215 213 213 228 253 240 205 214 230 238 248 264 273 163
338 340 341 343 343 346 346 354 347 162 161 161 150 246 197 206 210 244 223 229 244 230 237 236 242 244 236 223 224 216 221 215 214 217 212 213 223 233 235 252 315 215 232 256 254 280 213
340 342 343 344 346 349 346 351 343 177 148 157 163 146 239 213 221 237 248 230 234 223 224 230 235 232 223 230 213 211 212 208 202 225 213 210 224 233 240 199 294 311 274 285 240 258 268
342 344 346 351 351 352 347 348 353 198 180 184 269 282 172 204 225 243 237 222 232 222 223 219 225 235 246 261 259 200 206 212 203 210 202 209 227 235 251 264 250 222 229 255 269 274 205
345 346 348 351 350 351 350 345 350 226 206 207 202 204 204 245 199 225 225 229 233 227 229 212 231 241 272 245 325 239 251 199 202 219 203 204 214 229 250 247 252 259 243 249 266 310 81
343 346 345 347 348 350 352 342 338 317 225 223 219 213 222 257 269 313 233 208 228 240 262 275 289 252 104 230 79 183 200 204 268 189 209 202 210 225 241 243 243 246 260 243 265 282 16
340 343 346 345 344 346 349 344 333 315 275 223 218 215 224 246 329 332 229 220 241 253 266 270 344 230 268 218 193 177 169 249 265 187 197 201 201 217 236 243 249 249 342 5 307 268 253
338 341 343 343 341 341 343 343 330 313 287 244 221 219 226 236 291 311 297 256 248 294 253 223 256 250 224 230 221 240 250 166 204 215 189 194 188 225 224 241 271 21 214 241 322 115 52
329 333 337 339 339 339 337 337 329 313 282 261 231 220 222 235 288 281 289 247 277 287 289 173 262 291 264 209 265 317 325 358 328 240 207 207 226 252 243 259 264 326 244 250 305 284 93
329 327 330 333 333 333 334 333 327 308 289 260 247 228 224 218 213 263 228 234 241 295 345 253 357 291 287 248 267 231 227 236 272 317 226 246 233 260 254 291 325 298 278 203 268 274 276
321 322 326 328 329 328 330 330 325 303 287 261 253 236 230 226 217 251 254 245 245 250 233 214 271 301 255 161 21 8 332 275 214 269 261 236 212 274 299 159 334 287 223 215 301 359 281
Height
3162 3160 3157 3155 3153 3151 3149 3148 3147 3145 3144 3144 3144 3144 3144 3144 3144 3144 3144 3144 3145 3145 3146 3146 3147 3147 3149 3151 3151 3151 3154 3158 3160 3164 3168 3169 3173 3176 3176 3176 3177 3177 3177 3176 3176 3176 3177
3160 3158 3155 3153 3150 3148 3146 3145 3144 3143 3142 3141 3141 3141 3141 3142 3142 3142 3142 3143 3143 3144 3145 3145 3146 3146 3147 3150 3153 3151 3153 3156 3160 3164 3168 3170 3174 3175 3176 3176 3176 3176 3177 3176 3176 3177 3176
3159 3156 3153 3151 3148 3146 3144 3142 3141 3140 3139 3139 3138 3138 3138 3139 3140 3141 3141 3141 3142 3142 3143 3144 3145 3145 3145 3149 3150 3152 3153 3157 3160 3165 3168 3173 3175 3176 3175 3176 3177 3176 3176 3175 3175 3176 3176
3157 3154 3151 3148 3146 3143 3141 3139 3137 3136 3135 3135 3135 3135 3135 3136 3137 3138 3139 3140 3140 3141 3142 3143 3143 3143 3144 3145 3147 3150 3154 3158 3162 3166 3169 3175 3176 3175 3174 3175 3175 3175 3174 3172 3174 3175 3175
3155 3152 3149 3146 3143 3140 3137 3135 3133 3132 3131 3131 3131 3131 3132 3133 3134 3135 3136 3137 3138 3139 3140 3141 3142 3142 3143 3143 3145 3148 3152 3160 3164 3167 3170 3172 3173 3175 3174 3174 3172 3171 3170 3170 3173 3174 3174
3154 3150 3147 3143 3140 3136 3133 3131 3129 3128 3127 3127 3127 3127 3128 3129 3131 3132 3134 3135 3137 3138 3139 3140 3141 3145 3143 3142 3143 3147 3151 3159 3164 3167 3170 3171 3172 3173 3171 3169 3171 3169 3168 3169 3170 3172 3174
3152 3148 3144 3140 3136 3132 3129 3127 3125 3124 3123 3123 3123 3123 3124 3126 3127 3129 3132 3134 3139 3139 3136 3139 3139 3141 3142 3142 3144 3147 3152 3158 3163 3166 3168 3170 3171 3168 3166 3167 3168 3169 3170 3168 3170 3169 3171
3150 3146 3142 3138 3133 3129 3126 3124 3122 3121 3120 3119 3119 3120 3121 3122 3124 3127 3129 3131 3133 3134 3134 3135 3136 3139 3143 3145 3146 3149 3153 3158 3161 3163 3166 3168 3167 3164 3165 3168 3168 3167 3167 3166 3166 3168 3170
3149 3144 3139 3135 3131 3126 3123 3121 3119 3117 3116 3116 3115 3116 3117 3119 3121 3124 3127 3129 3129 3131 3132 3133 3133 3135 3140 3142 3145 3147 3151 3154 3158 3161 3163 3162 3162 3163 3164 3165 3166 3166 3165 3163 3166 3169 3168
3147 3142 3137 3133 3128 3124 3120 3117 3115 3114 3113 3112 3112 3112 3113 3116 3120 3121 3125 3127 3130 3131 3133 3131 3128 3131 3137 3139 3142 3147 3149 3154 3156 3159 3160 3161 3159 3160 3162 3163 3164 3162 3162 3161 3164 3164 3162
3146 3140 3135 3130 3126 3122 3118 3115 3112 3111 3110 3109 3109 3109 3110 3112 3117 3120 3124 3126 3129 3133 3131 3122 3127 3132 3133 3136 3140 3143 3148 3152 3153 3156 3159 3157 3157 3158 3160 3162 3162 3160 3163 3163 3161 3160 3158
3145 3139 3133 3128 3124 3119 3116 3112 3110 3108 3107 3107 3107 3107 3108 3110 3114 3118 3120 3125 3130 3137 3126 3124 3124 3127 3132 3134 3137 3143 3146 3149 3153 3154 3155 3154 3155 3157 3158 3159 3159 3160 3160 3160 3159 3156 3153
3143 3138 3132 3127 3122 3117 3113 3110 3107 3106 3105 3105 3104 3104 3106 3108 3111 3114 3120 3124 3133 3127 3121 3121 3122 3126 3129 3132 3136 3139 3142 3145 3148 3151 3150 3152 3151 3153 3155 3157 3158 3158 3159 3156 3153 3149 3158
3142 3136 3131 3125 3120 3115 3111 3108 3106 3104 3103 3102 3102 3102 3104 3107 3110 3113 3118 3126 3125 3118 3116 3116 3120 3124 3126 3130 3133 3136 3140 3142 3145 3147 3146 3148 3149 3150 3152 3154 3154 3155 3157 3152 3155 3155 3161
3140 3134 3129 3123 3118 3113 3110 3106 3104 3102 3101 3100 3100 3101 3103 3105 3108 3112 3118 3121 3116 3114 3115 3114 3116 3121 3125 3128 3132 3133 3136 3138 3141 3143 3144 3143 3145 3146 3149 3151 3154 3152 3151 3151 3157 3155 3158
3137 3132 3126 3121 3116 3112 3108 3105 3103 3101 3101 3100 3100 3100 3103 3104 3107 3111 3116 3114 3114 3115 3113 3114 3114 3118 3121 3124 3128 3129 3132 3134 3137 3140 3141 3140 3140 3139 3142 3147 3149 3149 3150 3153 3158 3155 3154
3134 3129 3124 3120 3115 3111 3107 3104 3102 3101 3101 3101 3102 3103 3105 3105 3108 3110 3112 3112 3115 3116 3116 3114 3113 3115 3118 3119 3123 3124 3128 3130 3132 3135 3139 3139 3138 3136 3137 3139 3143 3146 3147 3148 3146 3151 3148
3132 3127 3122 3118 3114 3110 3106 3103 3102 3102 3101 3103 3103 3107 3104 3105 3108 3110 3112 3111 3114 3113 3114 3114 3113 3112 3114 3116 3118 3121 3122 3124 3126 3130 3132 3136 3135 3132 3132 3135 3138 3139 3139 3140 3139 3136 3136
3129 3124 3120 3116 3112 3109 3105 3103 3102 3102 3102 3103 3103 3104 3103 3105 3108 3110 3111 3110 3113 3113 3113 3115 3113 3111 3110 3112 3114 3116 3118 3120 3122 3125 3127 3132 3133 3130 3126 3130 3133 3133 3135 3135 3134 3130 3132
3126 3122 3118 3114 3111 3108 3105 3103 3101 3101 3102 3103 3103 3106 3104 3104 3105 3107 3109 3109 3109 3111 3110 3111 3111 3110 3110 3110 3110 3112 3115 3118 3120 3123 3126 3128 3127 3126 3125 3126 3132 3128 3131 3133 3133 3130 3130
3124 3120 3116 3113 3110 3107 3104 3102 3101 3101 3102 3103 3103 3104 3105 3104 3104 3105 3107 3107 3106 3107 3108 3109 3109 3109 3108 3107 3108 3110 3114 3115 3117 3120 3122 3125 3124 3125 3128 3131 3133 3127 3128 3129 3130 3131 3130
3123 3119 3116 3112 3109 3106 3104 3102 3100 3100 3102 3103 3103 3099 3100 3102 3105 3104 3103 3102 3102 3102 3104 3104 3104 3103 3107 3102 3102 3103 3110 3110 3111 3117 3118 3121 3122 3123 3124 3124 3125 3130 3127 3129 3128 3127 3123
3122 3119 3115 3112 3109 3106 3103 3101 3100 3099 3099 3100 3100 3101 3100 3099 3100 3103 3102 3103 3101 3099 3097 3099 3098 3095 3099 3094 3100 3103 3105 3103 3109 3115 3117 3117 3120 3122 3120 3123 3123 3122 3123 3126 3126 3127 3119
3121 3118 3114 3111 3108 3105 3103 3100 3099 3098 3097 3098 3099 3100 3099 3099 3100 3095 3095 3098 3098 3097 3097 3093 3093 3094 3106 3102 3106 3111 3108 3108 3110 3100 3116 3114 3115 3119 3119 3119 3118 3120 3120 3121 3124 3127 3123
3120 3116 3113 3110 3108 3105 3102 3099 3097 3096 3095 3096 3097 3098 3097 3095 3095 3083 3096 3097 3100 3099 3098 3091 3099 3107 3101 3106 3110 3111 3114 3114 3100 3104 3109 3107 3108 3113 3114 3114 3114 3116 3115 3116 3122 3126 3128
3118 3115 3112 3109 3107 3104 3101 3098 3096 3095 3094 3094 3094 3095 3095 3096 3098 3097 3098 3100 3096 3095 3099 3100 3101 3104 3109 3108 3106 3102 3102 3103 3110 3105 3106 3107 3106 3108 3110 3112 3111 3116 3117 3118 3121 3128 3127
3116 3113 3111 3108 3105 3102 3100 3097 3095 3093 3092 3092 3092 3092 3094 3093 3096 3091 3091 3090 3091 3092 3095 3093 3100 3100 3096 3098 3099 3104 3110 3106 3095 3100 3107 3108 3109 3111 3109 3109 3110 3113 3120 3117 3125 3136 3131
3114 3111 3109 3106 3103 3101 3098 3095 3093 3091 3090 3090 3090 3090 3091 3092 3091 3090 3090 3091 3093 3095 3090 3092 3093 3096 3096 3093 3095 3098 3104 3111 3114 3108 3106 3107 3110 3113 3112 3109 3110 3107 3116 3123 3132 3134 3131
3111 3109 3106 3103 3101 3098 3096 3094 3091 3090 3089 3088 3088 3088 3088 3089 3090 3090 3090 3091 3095 3097 3099 3101 3103 3101 3101 3100 3098 3104 3105 3102 3103 3111 3105 3114 3109 3114 3116 3114 3113 3112 3120 3120 3118 3124 3129